Miscellaneous Local Product
Issued by NWS North Platte, NE

Home | Current Version | Previous Version | Graphics & Text | Print | Product List | Glossary On
Versions: 1 2 3 4 5 6 7 8 9 10 11 12 13 14 15 16 17 18 19 20 21 22 23 24 25 26 27 28 29 30 31 32 33 34 35 36 37 38 39 40 41 42 43 44 45 46 47 48 49 50
000
AXUS43 KLBF 020210
MISLBF


WESTERN AND NORTH CENTRAL NEBRASKA HOURLY WEATHER ROUNDUP
NATIONAL WEATHER SERVICE NORTH PLATTE NE
800 PM CST SUN MAR 01 2015

***STATIONS NOT REPORTING VARIABLES SUCH AS SKY/WEATHER OR
PRESSURE ARE PROVIDED BY THE NEBRASKA DEPARTMENT OF
ROADS...RAWS...AND APRS NETWORKS...AND ARE NOT UNDER
NATIONAL WEATHER SERVICE QUALITY CONTROL***

...OBSERVATIONS IN AND NEAR THE EASTERN PANHANDLE OF NEBRASKA...

CITY           SKY/WX    TMP DP  RH WIND       PRES   REMARKS
PINE RIDGE     CLEAR     17   7  64 E5        30.30R WCI  10
CHADRON        PTCLDY    25   7  46 NW5       30.29R WCI  19
ALLIANCE       PTCLDY    24  11  57 NE6       30.26R WCI  17
SIDNEY         MOCLDY    26  16  65 S3        30.27R
WHITECLAY        N/A     24   8  50 CALM        N/A
CRESCENT LAKE    N/A     28   8  42 CALM        N/A
LISCO            N/A     29  12  50 CALM        N/A
BIG SPRINGS      N/A     22  14  71 CALM        N/A
LEWELLEN         N/A     22   1  41 S6          N/A  WCI  14
$$

...OBSERVATIONS IN NORTH CENTRAL NEBRASKA...

CITY           SKY/WX    TMP DP  RH WIND       PRES   REMARKS
VALENTINE      PTCLDY    25   8  48 N8        30.34R WCI  16
THEDFORD       PTCLDY    26   9  50 NE3       30.33R
AINSWORTH      PTCLDY    19   8  62 N6        30.35R WCI  11
O`NEILL        PTCLDY    24   7  48 N5        30.37S WCI  18
ORD            CLEAR     24   7  48 N5        30.36R WCI  18
BROKEN BOW     CLEAR     22   7  52 N7        30.34R WCI  13
BROWNLEE         N/A     22   3  44 N8          N/A  WCI  13
SPRINGVIEW       N/A     25   8  48 CALM        N/A
BREWSTER         N/A     29  15  53 CALM        N/A
ROSE             N/A     32  18  55 CALM        N/A
NEWPORT          N/A     29  14  52 S3          N/A
SARGENT          N/A     26  10  51 CALM        N/A
COMSTOCK         N/A     30  14  51 CALM        N/A
CHAMBERS         N/A     22   2  42 CALM        N/A
EWING            N/A     26  10  50 CALM        N/A
$$

...OBSERVATIONS IN SOUTHWEST NEBRASKA AND FAR NORTHEAST COLORADO...

CITY           SKY/WX    TMP DP  RH WIND       PRES   REMARKS
WRAY           FAIR      31  17  54 SE5       30.30R WCI  27
IMPERIAL         N/A     27  12  53 CALM      30.31R
OGALLALA       PTCLDY    26  11  53 CALM      30.31R
NORTH PLATTE   CLEAR     22   9  57 CALM      30.32R
MCCOOK         CLOUDY    33  10  38 SE5       30.33S WCI  29
LEXINGTON      PTCLDY    29  11  47 CALM      30.34R
PAXTON           N/A     25  10  52 CALM        N/A
BRADY            N/A     26   9  48 CALM        N/A
GOTHENBURG       N/A     29  10  44 CALM        N/A
CALLAWAY         N/A     29  12  48 NE3         N/A
$$

...NORTH PLATTE AREA...

CITY           SKY/WX    TMP DP  RH WIND       PRES   REMARKS
AIRPORT        CLEAR     22   9  57 CALM      30.32R
DOWNTOWN         N/A     30   9  42 CALM        N/A
$$

...SOME WEATHER OBSERVATIONS FROM AROUND THE REGION...

CITY           SKY/WX    TMP DP  RH WIND       PRES   REMARKS
DENVER         MOCLDY    21  16  81 S6        30.23R WCI  13
LARAMIE        PTCLDY    15  11  83 S13       30.09R WCI   1
CHEYENNE       CLOUDY    20  14  77 SW13      30.17R WCI   7
SCOTTSBLUFF    PTCLDY    28  12  51 S5        30.25S WCI  23
RAPID CITY     CLEAR     13   6  74 N3        30.31R
PIERRE         CLEAR     20  11  68 N10       30.37R WCI   9
WINNER         FAIR      24   3  40 W5        30.38R WCI  18
SIOUX FALLS    CLEAR     20  13  74 NW8       30.38R WCI  10
OMAHA          PTCLDY    30  18  60 N3        30.40R
GRAND ISLAND   CLEAR     25  13  60 CALM      30.38R
KANSAS CITY    MOCLDY    29  20  69 CALM      30.42R
WICHITA        MOCLDY    29  19  66 NE6       30.42R WCI  23
HAYS           MOCLDY    27  14  59 W6        30.39R WCI  20
LIBERAL        CLOUDY    28  21  74 NE3       30.37R
GOODLAND       CLOUDY    30  22  72 SE3       30.31R
$$



USA.gov is the U.S. government's official web portal to all federal, state and local government web resources and services.